KOSEN 1
1 49402U 21102H   25341.12049363  .00012967  00000-0  54452-3 0  9996
2 49402  97.3474  22.1279 0015188 159.6481 200.5365 15.23475016224749
HO-113
1 50466U 21131B   25341.30391708  .00001184  00000-0  38145-3 0  9993
2 50466  98.5061  69.7530 0003348 326.3353  33.7623 14.41101388207470
SNUGLITE 2
1 52899U 22065F   25341.12875196  .00002506  00000-0  48929-3 0  9990
2 52899  98.1924 121.6935 0006385 265.9061  94.1412 14.63811306182898
UmKA 1 (RS40S)
1 57172U 23091G   25341.27142241  .00010076  00000-0  49636-3 0  9990
2 57172  97.5344  35.7600 0015019  70.7043 289.5814 15.18059211134866
CubeBel-2 (EU11S)
1 57175U 23091K   25341.27112587  .00020170  00000-0  83722-3 0  9993
2 57175  97.5340  38.1982 0012309  73.5729 286.6859 15.23810201135022
RS-38S
1 57189U 23091Z   25341.27497150  .00023509  00000-0  83191-3 0  9999
2 57189  97.5367  42.6062 0009144  40.9154 319.2771 15.29113211135296
SONATE-2
1 59112U 24043Q   25340.95287712  .00038342  00000-0  82168-3 0  9994
2 59112  97.5332 116.9902 0008953 182.7786 177.3414 15.44619271 98083
MO-122
1 60209U 24125G   25340.83363316  .00048625  00000-0  99983-3 0  9994
2 60209  97.2522 191.2032 0013728 200.8099 159.2593 15.45723981 79693
GRBBeta
1 60237U 24128C   25340.90349085  .00007375  00000-0  51816-3 0  9993
2 60237  61.9884 169.9716 0056519  95.5281 265.2261 15.04663578 77318
Curium One
1 60242U 24128H   25341.22879711  .00013979  00000-0  86608-3 0  9993
2 60242  61.9777 163.8403 0056162  92.5214 268.2311 15.08732214 77450
ROBUSTA-3A
1 60243U 24128J   25341.22972510  .00009819  00000-0  62374-3 0  9997
2 60243  61.9854 165.3449 0056269  89.9858 270.7683 15.08093769 77439
CatSat
1 60246U 24125J   25341.02259286  .00051043  00000-0  12515-2 0  9990
2 60246  97.2316 188.4707 0033892 164.9285 195.2979 15.39951430 77649
HYPERVIEW-1G (RS66S)
1 61772U 24199AP  25341.24650994  .00057269  00000-0  11199-2 0  9994
2 61772  97.3211 210.6147 0008054 263.3470  96.6864 15.47217360104764
AO-123
1 61781U 24199AY  25341.25087688  .00016535  00000-0  53953-3 0  9995
2 61781  97.3250 206.7613 0012984 278.1135  81.8634 15.31775491104500
ZIMSAT 2
1 61783U 24199BA  25341.25629105  .00250249  00000-0  19842-2 0  9993
2 61783  97.3096 213.9559 0002888 231.5629 128.5375 15.70534413108147
HADES-R (SO-124)
1 62690U 25009CK  25341.17842476  .00207220  00000-0  28330-2 0  9994
2 62690  97.3887  63.5935 0001474 233.6870 126.4249 15.56722895 49914
HYDRA-T
1 62692U 25009CM  25340.90606419  .00220237  00000-0  28486-2 0  9996
2 62692  97.3887  63.4991 0001515 244.0129 116.0971 15.58170899 49882
JINJUSat 1B
1 63210U 25052A   25340.95163048  .00023942  00000-0  91994-3 0  9991
2 63210  97.4202 233.1437 0005859  59.9478 300.2341 15.26415224 40706
NUSHSAT 1
1 63211U 25052B   25340.68881122  .00031754  00000-0  11819-2 0  9999
2 63211  97.4186 232.9959 0005972  62.4571 297.7275 15.27410108 40672
TEVEL2-4
1 63213U 25052D   25340.62151249  .00029929  00000-0  11367-2 0  9994
2 63213  97.4108 232.4940 0005296  74.9279 285.2546 15.26757838 40659
TEVEL2-5
1 63214U 25052E   25341.15102111  .00026157  00000-0  99561-3 0  9991
2 63214  97.4100 233.0078 0005160  74.4589 285.7219 15.26712673 40739
TEVEL2-6
1 63215U 25052F   25340.96152014  .00026051  00000-0  99333-3 0  9997
2 63215  97.4106 232.8083 0005401  75.1047 285.0789 15.26654396 40703
TEVEL2-1
1 63217U 25052H   25340.67518121  .00029775  00000-0  11459-2 0  9990
2 63217  97.4083 232.3400 0005400  84.0441 276.1413 15.26319716 40656
TEVEL2-3
1 63218U 25052J   25341.13337464  .00026394  00000-0  10152-2 0  9995
2 63218  97.4082 232.7997 0005413  83.8465 276.3390 15.26361423 40724
TEVEL2-2
1 63219U 25052K   25341.13486773  .00025913  00000-0  99744-3 0  9995
2 63219  97.4079 232.7964 0005386  84.2802 275.9051 15.26341636 40727
TEVEL2-9
1 63237U 25052AD  25341.15805294  .00024405  00000-0  98150-3 0  9995
2 63237  97.4142 232.5338 0009225  97.0400 263.1887 15.24862482 40690
TEVEL2-7
1 63238U 25052AE  25340.97453589  .00024031  00000-0  97107-3 0  9997
2 63238  97.4148 232.3273 0009305  97.5140 262.7155 15.24705518 40664
TEVEL2-8
1 63239U 25052AF  25340.65192583  .00027107  00000-0  10959-2 0  9993
2 63239  97.4145 231.9929 0009241  99.3572 260.8711 15.24663872 40611
HYDRA-W
1 63490U 25052BL  25341.18188580  .00098717  00000-0  24158-2 0  9994
2 63490  97.4065 234.8870 0011608  85.3004 274.9568 15.40337465 40860
HADES-ICM (SO-125)
1 63492U 25052BN  25341.16984549  .00085533  00000-0  22264-2 0  9991
2 63492  97.4073 234.6212 0011747  88.7634 271.4957 15.38502947 40847
Dragonfly
1 65729U 98067XH  25340.75777803  .00197078  00000-0  16006-2 0  9994
2 65729  51.6244 166.3400 0006464 240.1975 119.8380 15.69539731 12227
RSP-03
1 65732U 98067XL  25341.32089098  .00149269  00000-0  13580-2 0  9997
2 65732  51.6257 164.1062 0006310 215.9526 144.1047 15.66929092 12318
GHS-01
1 65733U 98067XM  25341.22787238  .00245776  00000-0  17831-2 0  9991
2 65733  51.6272 163.4841 0006899 242.1163 117.9137 15.72081173 12318
BOTAN
1 65942U 98067XP  25340.76859027  .00129965  00000-0  14806-2 0  9997
2 65942  51.6270 169.4226 0003982 191.5132 168.5771 15.61316825  8936
SPIRONE
1 66657U 25274H   25341.24648125  .00004610  00000-0  45517-3 0  9993
2 66657  97.7389 268.5467 0010991 297.1629  62.8469 14.92402984  1581
K-HERO
1 66660U 25274L   25341.04179500  .00004409  00000-0  42987-3 0  9995
2 66660  97.7396 268.3545 0012933 302.6288  57.3682 14.92908997  1557
CEVROSAT1
1 98526U 25248E   25313.13142326  .00000000  00000-0  19360-3 0    02
2 98526  45.4084 218.4764 0001315 254.8982 242.1062 15.17981583    02
